[[{"header":{"parameterUnit":"m.s-1","parameterCategory":1,"la1":30.2991,"la2":30.254,"lo1":-89.0895,"lo2":-89.0444,"dy":0.0017,"dx":0.0017,"nx":28,"ny":28,"refTime":"2024-02-07T09:00:00:Z","depth":0,"parameterNumber":2,"parameterNumberName":"U-component_of_WINDS"},"data":[0,0,0,0,0,0,0,0,0,0,0,0,0,0,0,0,0,0,0,0,0,0,0,0,0,0,0,0,0,0,0,0,0,0,0,0,0,0,0,0,0,0,0,0,0,0,0,0,0,0,0,0,0,0,0,0,0,0,-4.1254,-4.1255,0,-4.1358,-4.1359,-4.136,-4.1323,-4.132,-4.1318,-4.1316,-4.1426,-4.1431,-4.1436,0,0,0,0,0,0,0,0,0,0,0,0,0,-4.1029,-4.1033,-4.1254,-4.1255,-4.1257,-4.1358,-4.1359,-4.1361,-4.1323,-4.132,-4.1317,-4.1315,-4.1424,-4.143,-4.1437,0,0,0,0,0,0,0,0,0,0,0,0,0,-4.1129,-4.1035,-4.1254,-4.125,-4.1251,-4.1357,-4.1359,-4.1361,-4.1324,-4.132,-4.1317,-4.1313,-4.1422,-4.143,-4.1437,-4.1555,0,0,-4.1461,-4.1464,0,0,0,0,0,0,0,0,-4.1124,-4.1138,-4.1249,-4.125,-4.1251,-4.1324,-4.132,-4.1426,-4.1325,-4.1296,-4.1316,-4.1312,-4.1395,-4.1405,-4.1432,-4.1561,-4.1565,-4.1462,-4.1466,-4.147,-4.1472,0,0,0,0,0,0,0,-4.1117,-4.1133,-4.1295,-4.1251,-4.1252,-4.1245,-4.1255,-4.134,-4.1364,-4.1298,-4.1296,-4.1308,-4.1395,-4.1425,-4.1434,-4.1567,-4.1461,-4.1468,-4.1473,-4.1476,-4.18,-4.1804,0,0,0,0,0,0,-4.1109,-4.1128,-4.1292,-4.1298,-4.1177,-4.1252,-4.1263,-4.1304,-4.1363,-4.1369,-4.1311,-4.1306,-4.1413,-4.1426,-4.1438,-4.1581,-4.147,-4.1477,-4.1481,-4.1796,-4.1801,-4.1805,0,0,0,0,0,0,-4.1104,-4.1124,-4.1288,-4.1212,-4.1233,-4.126,-4.1305,-4.1308,-4.1337,-4.1373,-4.1377,-4.1337,-4.1411,-4.1427,-4.1527,-4.1584,-4.148,-4.1487,-4.1791,-4.1798,-4.1803,-4.1866,0,0,0,0,0,0,-4.1098,-4.1122,-4.1166,-4.1214,-4.1237,-4.1373,-4.1309,-4.1313,-4.135,-4.1345,-4.1398,-4.1404,-4.141,-4.1515,-4.1534,-4.1593,-4.1493,-4.1786,-4.1794,-4.1801,-4.1859,-4.1874,-4.1886,0,0,0,0,0,-4.109,-4.118,-4.1168,-4.1188,-4.1291,-4.1376,-4.1389,-4.1393,-4.1355,-4.14,-4.1423,-4.1402,-4.1575,-4.1526,-4.1547,-4.1608,-4.1783,-4.1792,-4.1801,-4.1853,-4.1871,-4.1886,0,0,0,0,0,0,-4.1138,-4.1186,-4.1173,-4.1281,-4.1325,-4.1369,-4.1425,-4.1412,-4.1468,-4.1461,-4.1465,-4.1477,-4.158,-4.1604,-4.1549,-4.1727,-4.1674,-4.1687,-4.1706,-4.1724,-4.1737,-4.1728,-4.15,0,0,0,0,0,-4.1161,-4.1225,-4.1264,-4.1355,-4.1378,-4.1398,-4.1435,-4.1435,-4.1481,-4.1499,-4.153,-4.1577,-4.1642,-4.1684,-4.1746,-4.1864,-4.1876,-4.1917,-4.1931,-4.1941,-4.1953,-4.2018,-4.2037,-4.1835,-4.1835,-4.1835,0,0,-4.121,-4.1244,-4.1283,-4.1366,-4.1399,-4.1466,-4.1414,-4.1487,-4.1537,-4.1511,-4.1606,-4.1631,-4.1684,-4.1793,-4.1843,-4.1817,-4.2012,-4.1953,-4.1961,-4.1967,-4.203,-4.2049,-4.2066,-4.1841,-4.184,-4.1839,0,0,-4.1332,-4.1364,-4.1443,-4.1479,-4.1531,-4.1545,-4.1564,-4.1612,-4.1627,-4.1723,-4.1705,-4.1767,-4.1879,-4.1917,-4.1952,-4.2093,-4.2076,-4.2114,-4.2183,-4.2247,-4.2263,-4.2277,-4.2328,-4.2346,-4.2125,-4.2125,-4.2125,0,-4.1385,-4.1484,-4.1487,-4.1561,-4.1599,-4.1579,-4.1661,-4.1696,-4.1766,-4.1794,-4.1764,-4.1905,-4.1939,-4.2058,-4.2093,-4.2122,-4.2145,-4.2106,-4.226,-4.2275,-4.2288,-4.2336,-4.2355,-4.2129,-4.2129,-4.2128,-4.2128,0,-4.1548,-4.1617,-4.1676,-4.1743,-4.1788,-4.1866,-4.1883,-4.1929,-4.1926,-4.1944,-4.2043,-4.2084,-4.2154,-4.2183,-4.2181,-4.2303,-4.2285,-4.2258,-4.2204,-4.2311,-4.2357,-4.2375,-4.2135,-4.2134,-4.2133,-4.2132,0,0,-4.1699,-4.1769,-4.1791,-4.1822,-4.188,-4.1934,-4.2014,-4.2082,-4.2121,-4.2172,-4.2239,-4.2336,-4.2312,-4.2351,-4.2354,-4.2411,-4.2521,-4.2377,-4.2378,-4.2402,-4.2659,-4.2678,-4.2699,-4.2511,-4.2515,-4.2518,-4.2654,0,-4.1825,-4.1961,-4.1968,-4.2093,-4.2158,-4.2142,-4.2211,-4.2256,-4.2276,-4.2336,-4.2359,-4.2427,-4.239,-4.2414,-4.2469,-4.2496,-4.2572,-4.2486,-4.2575,-4.2578,-4.256,-4.2723,-4.2742,-4.2869,-4.2672,-4.2675,-4.2677,0,-4.1989,-4.2044,-4.2175,-4.2225,-4.2253,-4.2315,-4.2379,-4.2436,-4.2488,-4.2499,-4.2544,-4.254,-4.2624,-4.2569,-4.2686,-4.2627,-4.2664,-4.2684,-4.2689,-4.2695,-4.2632,-4.2733,-4.2909,-4.2928,-4.2706,-4.2703,-4.2701,0,-4.2085,-4.2193,-4.2285,-4.2313,-4.2374,-4.2418,-4.2447,-4.2494,-4.2536,-4.2594,-4.2621,-4.2688,-4.2725,-4.2778,-4.2794,-4.2752,-4.291,-4.2856,-4.2923,-4.2922,-4.2954,-4.2952,-4.3138,-4.2981,-4.2981,-4.2981,-4.298,0,-4.2224,-4.2305,-4.233,-4.2386,-4.2478,-4.2487,-4.2578,-4.2603,-4.2647,-4.271,-4.2702,-4.2762,-4.2779,-4.2843,-4.2856,-4.2951,-4.2968,-4.298,-4.2982,-4.298,-4.2978,-4.3003,-4.2994,-4.2986,-4.2985,-4.2984,-4.2983,0,-4.2346,-4.2366,-4.2465,-4.2516,-4.2531,-4.2596,-4.2641,-4.2697,-4.2717,-4.2798,-4.2817,-4.285,-4.2925,-4.2946,-4.3037,-4.3046,-4.3157,-4.3152,-4.3139,-4.3139,-4.3203,-4.3197,-4.3411,-4.3439,-4.3265,-4.3267,-4.3268,0,-4.2431,-4.2493,-4.2551,-4.2593,-4.2622,-4.2689,-4.2732,-4.2745,-4.279,-4.2855,-4.2904,-4.2978,-4.3038,-4.316,-4.3192,-4.3262,-4.3258,-4.3329,-4.3268,-4.3265,-4.3259,-4.3254,-4.3261,-4.3339,-4.3341,-4.3342,-4.3344,0,-4.2582,-4.259,-4.265,-4.2716,-4.2767,-4.2819,-4.287,-4.2905,-4.2926,-4.2978,-4.3054,-4.31,-4.3193,-4.3268,-4.3339,-4.3371,-4.3362,-4.3363,-4.3382,-4.3379,-4.3368,-4.3374,-4.3169,-4.3357,-4.3356,-4.3355,-4.3354,-4.3353,-4.2688,-4.2743,-4.2792,-4.2861,-4.2901,-4.2949,-4.3005,-4.3033,-4.3096,-4.3171,-4.3177,-4.326,-4.3314,-4.3409,-4.3445,-4.3512,-4.3491,-4.3518,-4.3525,-4.3531,-4.3536,-4.336,-4.3525,-4.3525,-4.3524,-4.3524,-4.3524,0,-4.2837,-4.2869,-4.2933,-4.3004,-4.3059,-4.3046,-4.3102,-4.3149,-4.3222,-4.3272,-4.3332,-4.3421,-4.3494,-4.3534,-4.3607,-4.3654,-4.3651,-4.3672,-4.3668,-4.3676,-4.3551,-4.3526,-4.3673,-4.3673,-4.3673,-4.3673,-4.3673,-4.3673,-4.2921,-4.3013,-4.3028,-4.3141,-4.3173,-4.3253,-4.3287,-4.3332,-4.3372,-4.3472,-4.3532,-4.3558,-4.3605,-4.3682,-4.375,-4.376,-4.3787,-4.381,-4.3818,-4.37,-4.3684,-4.367,-4.3647,-4.3817,-4.3817,-4.3938,-4.3939,-4.394]},{"header":{"parameterUnit":"m.s-1","parameterCategory":1,"la1":30.2991,"la2":30.254,"lo1":-89.0895,"lo2":-89.0444,"dy":0.0017,"dx":0.0017,"nx":28,"ny":28,"refTime":"2024-02-07T09:00:00:Z","depth":0,"parameterNumber":3,"parameterNumberName":"V-component_of_WINDS"},"data":[0,0,0,0,0,0,0,0,0,0,0,0,0,0,0,0,0,0,0,0,0,0,0,0,0,0,0,0,0,0,0,0,0,0,0,0,0,0,0,0,0,0,0,0,0,0,0,0,0,0,0,0,0,0,0,0,0,0,2.2434,2.2434,0,2.2505,2.2506,2.2507,2.2521,2.2521,2.252,2.252,2.2591,2.2594,2.2596,0,0,0,0,0,0,0,0,0,0,0,0,0,2.2311,2.2313,2.2434,2.2435,2.2435,2.2505,2.2506,2.2507,2.2521,2.2521,2.252,2.2519,2.2591,2.2593,2.2596,0,0,0,0,0,0,0,0,0,0,0,0,0,2.2371,2.2313,2.2433,2.2451,2.2453,2.2505,2.2506,2.2507,2.2521,2.2521,2.252,2.2519,2.259,2.2593,2.2597,2.2635,0,0,2.2608,2.2609,0,0,0,0,0,0,0,0,2.2368,2.2376,2.2448,2.245,2.2453,2.2503,2.2489,2.255,2.2522,2.2495,2.252,2.2519,2.2563,2.2568,2.2584,2.2639,2.2642,2.2608,2.261,2.2612,2.2613,0,0,0,0,0,0,0,2.2363,2.2373,2.2462,2.2449,2.2452,2.2456,2.2463,2.25,2.2533,2.2498,2.2499,2.2507,2.2564,2.258,2.2585,2.2643,2.2608,2.2611,2.2613,2.2615,2.2736,2.2737,0,0,0,0,0,0,2.2356,2.2369,2.246,2.2464,2.2407,2.2458,2.2467,2.2488,2.2532,2.2538,2.2508,2.2508,2.2574,2.2581,2.2588,2.2638,2.2612,2.2615,2.2617,2.2735,2.2736,2.2737,0,0,0,0,0,0,2.2353,2.2364,2.2457,2.2417,2.2429,2.2461,2.2485,2.249,2.2506,2.254,2.2546,2.2518,2.2574,2.2583,2.2624,2.2641,2.2617,2.262,2.2733,2.2735,2.2737,2.2737,0,0,0,0,0,0,2.235,2.2363,2.2378,2.2417,2.2431,2.2491,2.2486,2.2492,2.2512,2.2513,2.2552,2.2557,2.2574,2.2619,2.2628,2.2645,2.2623,2.2732,2.2734,2.2736,2.2736,2.2738,2.2741,0,0,0,0,0,2.2345,2.2374,2.2378,2.2389,2.245,2.2492,2.25,2.2519,2.2513,2.2529,2.2551,2.2556,2.2637,2.2623,2.2633,2.2652,2.2731,2.2734,2.2736,2.2734,2.2738,2.274,0,0,0,0,0,0,2.2335,2.238,2.2385,2.2427,2.2456,2.2495,2.2515,2.2522,2.2553,2.2552,2.2574,2.2582,2.2623,2.2641,2.2624,2.2693,2.2684,2.2688,2.2679,2.2683,2.2685,2.268,2.2626,0,0,0,0,0,2.2338,2.2368,2.2405,2.2439,2.2454,2.2482,2.2501,2.2513,2.2544,2.2556,2.2581,2.261,2.2643,2.2664,2.2695,2.2738,2.2748,2.2756,2.2759,2.2761,2.2765,2.2791,2.2796,2.2745,2.2745,2.2745,0,0,2.2343,2.2371,2.2389,2.2438,2.2462,2.2494,2.2492,2.2525,2.2549,2.2561,2.2602,2.2621,2.2656,2.2699,2.2719,2.2715,2.2781,2.2764,2.2765,2.2768,2.2794,2.2799,2.2803,2.2746,2.2746,2.2746,0,0,2.237,2.2394,2.2426,2.245,2.2487,2.2506,2.2513,2.2552,2.2566,2.2607,2.2618,2.2647,2.2701,2.2726,2.2746,2.2785,2.2791,2.2794,2.2807,2.2833,2.2837,2.2841,2.2856,2.2861,2.2798,2.2798,2.2798,0,2.2372,2.2421,2.2441,2.2475,2.2497,2.251,2.2543,2.2566,2.261,2.2625,2.2621,2.2692,2.2715,2.2765,2.2775,2.279,2.2801,2.279,2.2835,2.2839,2.2842,2.2858,2.2863,2.2798,2.2798,2.2798,2.2798,0,2.2423,2.2457,2.2478,2.2522,2.2546,2.2579,2.2605,2.2627,2.2638,2.2658,2.2701,2.273,2.2769,2.2782,2.2792,2.2834,2.2831,2.283,2.2822,2.2847,2.2862,2.2868,2.2798,2.2798,2.2798,2.2798,0,0,2.2444,2.2501,2.2509,2.253,2.2572,2.2599,2.2633,2.2672,2.2691,2.2722,2.2752,2.2799,2.28,2.2822,2.2835,2.2857,2.2889,2.2855,2.2856,2.2861,2.2939,2.294,2.2947,2.2893,2.2894,2.2895,2.2937,0,2.2478,2.254,2.256,2.2612,2.2644,2.2658,2.2689,2.2718,2.2738,2.2768,2.2789,2.2823,2.282,2.2834,2.2857,2.288,2.2905,2.2877,2.2922,2.2923,2.2914,2.2954,2.2955,2.2993,2.2943,2.2944,2.2944,0,2.2525,2.2558,2.2613,2.2654,2.2668,2.2695,2.2733,2.2762,2.2796,2.2809,2.2835,2.2847,2.2884,2.2874,2.2926,2.2907,2.2926,2.2941,2.2943,2.2949,2.2936,2.2962,2.3005,2.3012,2.2953,2.2952,2.2952,0,2.2537,2.2595,2.2637,2.2654,2.2702,2.2721,2.2742,2.2775,2.2798,2.2831,2.2847,2.2883,2.2904,2.2932,2.2955,2.2944,2.3006,2.2996,2.3018,2.3018,2.3031,2.303,2.3079,2.3041,2.3041,2.3041,2.3041,0,2.2573,2.2607,2.2644,2.2669,2.2708,2.2731,2.2769,2.279,2.282,2.2851,2.2864,2.2893,2.292,2.2952,2.2969,2.3011,2.302,2.3032,2.3036,2.3031,2.303,2.3045,2.3044,2.3043,2.3042,2.3042,2.3042,0,2.2594,2.2619,2.2666,2.2708,2.2719,2.2746,2.2782,2.2808,2.2829,2.2867,2.2877,2.291,2.2948,2.2973,2.3022,2.3034,2.308,2.3083,2.3069,2.3071,2.3093,2.3091,2.3154,2.3165,2.3118,2.3119,2.3119,0,2.2615,2.2642,2.2688,2.2709,2.2731,2.2765,2.2789,2.2813,2.2838,2.288,2.2901,2.2941,2.2974,2.3035,2.3063,2.3101,2.3106,2.3126,2.3112,2.3107,2.3108,2.3107,2.3111,2.3128,2.3128,2.3129,2.3129,0,2.2652,2.2664,2.2698,2.2737,2.2766,2.2798,2.2829,2.2846,2.2876,2.2903,2.2943,2.2969,2.302,2.306,2.3101,2.3122,2.3131,2.3133,2.3141,2.3137,2.3128,2.3135,2.3077,2.3132,2.3131,2.3131,2.3131,2.3131,2.2675,2.27,2.2737,2.2775,2.2802,2.2832,2.2859,2.2884,2.2918,2.2962,2.2974,2.3016,2.3052,2.3108,2.313,2.3164,2.3162,2.3172,2.3175,2.3177,2.3179,2.3122,2.3172,2.3171,2.3171,2.3171,2.3171,0,2.2714,2.2739,2.2774,2.2819,2.2849,2.2855,2.2891,2.2916,2.2954,2.2986,2.3019,2.3067,2.3106,2.3137,2.3178,2.3199,2.3204,2.3209,2.3208,2.3214,2.3178,2.3168,2.3204,2.3204,2.3204,2.3204,2.3204,2.3204,2.2738,2.2782,2.2798,2.2856,2.2881,2.2923,2.2943,2.2972,2.2998,2.305,2.3083,2.3104,2.3137,2.318,2.3217,2.3225,2.324,2.3244,2.3254,2.322,2.3216,2.3212,2.3204,2.3247,2.3247,2.3287,2.3287,2.3288]}]]